Location: Hudson Post Office (historical)
(38.8413°N, 119.2732°W)
Time: 13:01:55
(UTC+00:00)

Daily predictions for brighter satellites

Satellite Brightness Start Highest point End
(mag) Time Altitude Azimuth Time Altitude Azimuth Time Altitude Azimuth
NOSS 3-4 (A) 4.3 12:11:28 19° S 12:15:23 45° ESE 12:21:09 10° NE
NOSS 3-4 (C) 4.3 12:11:25 18° S 12:15:31 45° ESE 12:21:17 10° NE
ATLAS 5 CENTAUR R/B 4.2 12:24:24 23° N 12:24:24 23° N 12:25:39 10° NNE
Cosmos 1606 4.0 12:29:46 37° ESE 12:29:46 37° ESE 12:32:33 10° SSE
Cosmos 2263 Rocket 2.2 12:29:12 26° SSW 12:32:27 77° ESE 12:38:08 10° NNE
CENTAUR R/B 3.6 12:27:26 23° NNW 12:33:02 60° NE 12:41:47 10° SE
Cosmos 1386 Rocket 4.4 12:27:43 10° SSW 12:34:07 75° W 12:40:31 10° N
ATLAS 2AS CENTAUR R/B 3.6 12:27:08 10° SSW 12:34:47 56° ESE 12:42:29 10° NE
SL-4 R/B 4.1 12:37:42 18° NNE 12:37:42 18° NNE 12:38:54 10° NE
USA 234 4.2 12:30:35 10° ENE 12:36:47 44° SE 12:42:58 10° SSW
deb Chang Zheng 4 4.2 12:34:00 10° NNE 12:38:17 56° E 12:42:32 10° S
Delta 2 Rocket 4.1 12:42:32 48° S 12:42:32 48° S 12:46:49 10° ESE
Meteor 1-31 Rocket 4.0 12:39:45 10° NNE 12:45:38 26° S 12:47:22 10° S
Cosmos 773 Rocket 3.8 12:44:17 58° NW 12:45:18 79° WSW 12:50:32 10° SSE
NOSS 3-2 (A) 4.0 12:43:27 32° NW 12:47:41 81° WSW 12:56:20 10° SSE
Nadezhda 1 Rocket 3.9 12:45:40 21° NNW 12:50:03 62° W 12:56:12 10° S
Lacrosse 5 2.5 12:49:39 14° SSW 12:53:56 55° SE 12:58:53 10° NE
Cosmos 1603 4.0 12:50:54 20° NNW 12:54:53 67° ENE 13:00:29 10° SSE
ALOS 2.7 12:50:50 10° N 13:00:20 - SSW 12:54:20 45° NNW
Lacrosse 4 Rocket 3.4 12:55:22 12° N 12:58:33 27° NE 13:02:18 10° ESE
FENGYUN 3A 3.7 12:54:57 10° N 13:00:15 55° WNW 13:05:30 10° SSW
USA 238 DEB 3.8 12:58:32 27° NW 13:02:55 74° WSW 13:10:28 10° SSE
USA 238 3.8 12:58:36 27° NW 13:03:00 75° WSW 13:10:33 10° SSE
Cosmos 1943 3.4 13:00:26 15° NNW 13:05:13 72° ENE 13:10:53 10° SSE
CZ-4B R/B 2.8 13:02:57 10° S 13:04:31 26° S 13:04:31 26° S
Cosmos 1461 3.7 13:05:30 22° NNW 13:08:24 55° NE 13:12:50 10° SE
Cosmos 1151 Rocket 3.5 13:04:30 10° N 13:08:43 61° E 13:12:56 10° SSE
Cosmos 489 Rocket 4.4 13:04:02 15° NNW 13:09:22 75° WSW 13:15:40 10° S
FALCON 9 DEB 4.5 13:08:39 16° SSW 13:10:42 35° SE 13:13:40 10° ENE
Cosmos 1633 2.3 13:09:41 10° SSW 13:13:11 74° W 13:16:43 10° N
FALCON 9 DEB 4.2 13:11:55 19° SSW 13:13:53 41° SE 13:16:55 10° ENE
CZ-4B R/B 3.1 13:09:54 10° NNE 13:14:26 85° ESE 13:18:51 10° SSW
ADEOS 3.8 13:09:47 10° N 13:14:44 45° WNW 13:19:40 10° SW
OAO 2 Rocket 4.2 13:11:59 21° SW 13:14:58 45° SSE 13:19:52 10° E
Milstar 3 Cent rocket 4.4 13:10:23 16° WSW 13:16:38 48° S 13:31:48 10° ESE
Cosmos 1328 Rocket 3.9 13:12:53 10° N 13:17:17 67° E 13:21:41 10° SSE
SAR-Lupe-4 3.4 13:14:58 10° S 13:18:32 81° W 13:20:48 21° NNW
Atlas Centaur 2 3.8 13:13:50 10° SW 13:18:41 25° S 13:22:43 10° ESE
Okean 3 Rocket 3.6 13:19:56 10° SSW 13:24:11 52° W 13:28:29 10° N
SJ 16-02 1.3 13:22:19 10° SSW 13:26:41 63° WNW 13:31:05 10° N
Cosmos 1766 Rocket 3.7 13:23:49 10° SSW 13:28:10 51° W 13:32:32 10° N
PSLV R/B 3.9 13:24:54 10° SSE 13:29:03 89° ESE 13:33:13 10° NNW
Meteor 2-17 Rocket 4.3 13:24:06 10° S 13:30:09 85° W 13:36:14 10° N
MOS 1 Rocket 4.3 13:26:36 10° SSE 13:31:04 49° ENE 13:35:49 10° N
H-2A R/B 3.0 13:27:58 10° NNE 13:31:53 71° ESE 13:35:44 10° S
Cosmos 1184 Rocket 2.9 13:29:16 10° SSW 13:32:26 46° WNW 13:35:37 10° N
FALCON 9 DEB 3.3 13:29:48 12° SW 13:32:39 63° SE 13:35:51 10° NE
USA 276 4.5 13:33:43 12° SW 13:33:43 12° SW 13:34:38 10° SSW
COSMO-SKYMED 1 2.6 13:29:31 10° S 13:33:47 58° W 13:38:06 10° NNW
CZ-4C R/B 2.1 13:30:23 10° SSW 13:35:06 78° ESE 13:40:42 10° NE
SAR-Lupe-1 4.2 13:32:11 10° S 13:35:40 49° W 13:38:25 15° NNW
Cosmos 1538 Rocket 4.3 13:31:31 15° NW 13:35:43 46° WSW 13:40:44 10° S
ERS-2 3.2 13:34:26 10° SSW 13:37:24 23° W 13:37:27 23° W
Cosmos 1408 Rocket 3.5 13:33:16 10° S 13:37:43 76° W 13:42:12 10° N
ASTRO E2 4.3 13:35:42 14° SW 13:38:15 26° S 13:41:35 10° SE
Cosmos 1862 4.4 13:40:05 10° SSE 13:43:58 48° E 13:47:54 10° NNE
Cosmos 158 Rocket 3.9 13:39:58 10° NNW 13:44:54 86° ENE 13:49:53 10° SSE
Cosmos 2181 Rocket 4.0 13:39:19 10° NNW 13:45:26 60° W 13:51:26 10° S
OAO 3 Rocket 4.5 13:42:38 15° WSW 13:45:42 28° SSW 13:49:45 10° SE
BREEZE M DEB (TANK) 3.3 13:37:35 10° SW 13:48:59 80° SE 13:52:18 10° ENE
ATLAS 3B R/B 3.5 13:43:07 10° NNW 13:49:52 50° NE 13:56:51 10° SE
Meteor PRIRODA 4.2 13:47:03 10° N 13:50:29 35° WNW 13:53:54 10° SW
Cosmos 1844 Rocket 3.0 13:46:54 10° SSW 13:52:30 74° ESE 13:58:10 10° NNE
Cosmos 1844 4.3 13:49:01 10° S 13:54:27 60° ESE 13:59:55 10° NNE
Cosmos 2154 Rocket 4.4 13:48:42 10° S 13:54:50 67° E 14:01:02 10° NNE
Cosmos 1689 Rocket 2.9 13:52:20 10° SSW 13:54:52 28° W 13:56:51 14° NW
Meteor 1-26 Rocket 4.4 13:49:21 10° NNW 13:54:59 53° W 14:00:24 10° S
CZ-4B DEB 4.4 13:49:47 10° NNE 13:55:16 80° ESE 14:00:44 10° S
Cosmos 1898 Rocket 3.5 13:52:08 10° SSW 13:57:25 76° WNW 14:02:46 10° NNE
GPS 2-04 Rocket1 3.4 13:55:46 10° WSW 13:59:29 47° S 14:03:03 10° E
ATLAS CENTAUR R/B 3.3 14:00:06 10° N 14:03:10 23° NE 14:06:18 10° ESE
PSLV R/B 3.8 14:01:41 10° N 14:05:30 54° WNW 14:09:11 10° SSW
NOSS 3-4 (A) 4.1 14:01:12 10° WSW 14:06:24 31° NW 14:11:54 10° NNE
NOSS 3-4 (C) 4.1 14:01:18 10° WSW 14:06:30 31° NW 14:12:02 10° NNE
Cosmos 2084 4.5 14:03:55 11° NW 14:07:36 31° WSW 14:11:33 10° S
Cosmos 2228 Rocket 3.6 14:03:26 10° N 14:07:51 64° E 14:12:12 10° SSE
H-2A R/B 2.2 14:06:56 10° N 14:10:48 72° WNW 14:14:34 10° SSW
Envisat 3.0 14:05:47 10° N 14:10:51 72° WNW 14:15:54 10° SSW
RESURS DK-1 2.4 14:09:41 10° SW 14:13:45 57° WNW 14:17:53 10° NNE
SL-4 R/B 4.0 14:14:03 10° NW 14:15:52 13° N 14:17:37 10° NNE
Meteor 1-10 Rocket 4.4 14:11:14 10° N 14:16:49 80° E 14:22:25 10° SSE
Cosmos 2263 Rocket 3.6 14:13:33 10° W 14:17:01 16° NW 14:20:31 10° NNW
Cosmos 1782 3.6 14:14:00 10° NNW 14:17:34 31° W 14:21:08 10° SSW
FALCON 9 DEB 3.6 14:14:39 10° WSW 14:17:39 36° NW 14:20:40 10° NE
Aureole 2 Rocket 2.4 14:17:08 10° S 14:19:38 55° ESE 14:22:09 10° NNE
Cosmos 2327 Rocket 4.4 14:13:38 10° SSW 14:19:45 74° W 14:25:51 10° N
USA 234 3.5 14:13:31 10° NE 14:19:49 53° NW 14:26:07 10° WSW
Cosmos 1937 Rocket 3.5 14:15:14 10° SSW 14:20:19 65° WNW 14:25:28 10° NNE
Cosmos 2074 Rocket 4.2 14:14:39 10° SSW 14:20:35 47° WNW 14:26:33 10° N
BREEZE-M DEB (TANK) 3.5 14:18:16 10° WSW 14:21:45 60° NNW 14:33:04 10° ENE
CENTAUR R/B 3.9 14:16:07 10° NW 14:23:37 36° WSW 14:31:25 10° S
MOS 1-B 4.4 14:19:40 10° N 14:25:26 65° WNW 14:31:09 10° SSW
ATLAS 2AS CENTAUR R/B 3.6 14:18:50 10° WSW 14:26:06 38° NW 14:33:20 10° NNE
COSMOS 2455 3.4 14:21:25 10° SSW 14:27:22 66° ESE 14:33:22 10° NNE
